STARLINK-11425 [DTC]

Last updated on Thu Nov 21 2024 00:02:06 GMT+0000 (Coordinated Universal Time)

1 61943U 24209E 24325.66668981 -.00917190 00000+0 -34259-2 0 9999 2 61943 53.1665 191.9009 0000531 92.8767 298.4055 15.89297397 2182
UTC large
Height (km)
Speed (km/s)
/
Latitude / Longitude
Inclination (degrees)
Orbital Period (minutes)
Azimuth
Elevation
Range (km)
Doppler Factor

Next 0 passes for location: London (51.5072 / 0.1276)

Sorry there are no passes over London.